Home > Weather > Naples > Past weeks

Flag for Italy Past Weather in Naples, Italy — Yesterday and Last 2 Weeks

Now
73 °F

Clear.


Feels Like: 74 °F
Forecast: 70 / 87 °F
Wind: 1 mph from West

Location: Naples / Capodichino

Current Time: Jun 30, 2016 at 1:45:20 AM

Latest Report: Jun 30, 2016 at 12:50 AM


Visibility: 10 mi

Pressure: 30.01 "Hg

Humidity: 78%

Dew Point: 66 °F

Location of NaplesLocation

Past Weather in Naples — Graph

°F

Naples Temperature Yesterday

Maximum temperature yesterday: 86 °F (at 2:50 PM)
Minimum temperature yesterday: 70 °F (at 5:20 AM)
Average temperature yesterday: 79 °F

High & Low Weather Summary for the Past Weeks

 TemperatureHumidityPressure
High97 °F (Jun 16, 1:50 PM)94% (Jun 20, 12:20 AM)30.15 "Hg (Jun 20, 12:20 AM)
Low59 °F (Jun 20, 2:20 AM)23% (Jun 16, 12:20 PM)29.68 "Hg (Jun 16, 5:50 AM)
Average76 °F61%29.97 "Hg
* Reported Jun 15 12:20 AM — Jun 30 12:20 AM, Naples, Weather by CustomWeather, © 2016

Note: Actual official high and low records may vary slightly from our data, if they occured in-between our weather recording intervals... More about our weather records

Advertising

Naples Weather History for the Previous 24 Hours

Scroll right to see more
 ConditionsComfort  
Time TempWeatherWind HumidityBarometerVisibility
12:20 AM
Thu, Jun 30
73 °FClear.No wind78%30.01 "Hg10 mi
11:50 PM
Wed, Jun 29
73 °FClear.1 mph78%30.01 "Hg10 mi
11:20 PM75 °FClear.2 mph78%30.01 "Hg10 mi
10:50 PM75 °FClear.2 mph78%30.01 "Hg10 mi
10:20 PM75 °FClear.3 mph78%30.01 "Hg10 mi
9:50 PM75 °FClear.2 mph78%30.01 "Hg10 mi
9:20 PM75 °FSunny.2 mph78%30.01 "Hg10 mi
8:50 PM77 °FSunny.3 mph74%29.98 "Hg10 mi
8:20 PM77 °FPassing clouds.5 mph74%29.98 "HgN/A
7:50 PM79 °FPassing clouds.6 mph65%29.98 "HgN/A
7:20 PM81 °FPassing clouds.6 mph58%29.98 "HgN/A
6:50 PM81 °FPassing clouds.7 mph58%29.98 "HgN/A
6:20 PM81 °FScattered clouds.6 mph58%29.95 "HgN/A
5:50 PM81 °FPassing clouds.9 mph54%29.98 "HgN/A
5:20 PM82 °FPassing clouds.8 mph48%29.98 "HgN/A
4:50 PM82 °FPassing clouds.8 mph42%29.98 "HgN/A
4:20 PM84 °FPassing clouds.9 mph37%29.98 "HgN/A
3:50 PM84 °FPassing clouds.9 mph40%29.98 "HgN/A
3:20 PM84 °FPassing clouds.10 mph43%29.98 "HgN/A
2:50 PM86 °FPassing clouds.8 mph40%30.01 "HgN/A
2:20 PM84 °FPassing clouds.9 mph45%30.01 "HgN/A
1:50 PM84 °FPassing clouds.9 mph45%30.01 "HgN/A
1:20 PM84 °FPassing clouds.9 mph43%30.01 "HgN/A
12:50 PM82 °FPassing clouds.9 mph45%30.01 "HgN/A
12:20 PM84 °FSunny.7 mph43%30.01 "Hg10 mi
11:50 AM84 °FPassing clouds.6 mph37%30.01 "HgN/A
11:20 AM84 °FSunny.2 mph35%30.01 "Hg10 mi
10:50 AM82 °FSunny.3 mph35%30.04 "Hg10 mi
10:20 AM82 °FSunny.3 mph35%30.04 "Hg10 mi
9:50 AM81 °FSunny.2 mph37%30.04 "Hg10 mi
9:20 AM81 °FSunny.3 mph32%30.04 "Hg10 mi
8:50 AM79 °FSunny.2 mph34%30.01 "Hg10 mi
8:20 AM77 °FSunny.2 mph36%30.01 "Hg10 mi
7:50 AM77 °FSunny.1 mph44%30.01 "Hg10 mi
7:20 AM73 °FPassing clouds.3 mph47%30.01 "HgN/A
6:50 AM73 °FPassing clouds.3 mph50%30.01 "HgN/A
6:20 AM70 °FClear.3 mph57%30.01 "Hg10 mi
5:50 AM70 °FPassing clouds.2 mph57%30.01 "HgN/A
5:20 AM70 °FPassing clouds.3 mph57%29.98 "HgN/A
3:50 AM72 °FPassing clouds.No wind53%29.98 "HgN/A
2:50 AM73 °FPassing clouds.2 mph50%29.98 "HgN/A
2:20 AM73 °FPassing clouds.1 mph57%N/AN/A
1:50 AM75 °FPassing clouds.3 mph61%30.01 "HgN/A
1:20 AM75 °FPassing clouds.No wind61%30.01 "HgN/A
Weather by CustomWeather, © 2016

See weather overviewHow to use our weather pages